NOAA NWS Hourly Roundups by Site

Regional Weather Roundup for Bismarck, ND

To Select Another Site Choose from List

Select Site:  

809
ASUS43 KBIS 220310
RWRBIS

NWR BROADCAST TEXT
NATIONAL WEATHER SERVICE BISMARCK ND
900 PM CST THU FEB 21 2019

NOTE: "FAIR" INDICATES FEW OR NO CLOUDS BELOW 12,000 FEET WITH NO
SIGNIFICANT WEATHER AND/OR OBSTRUCTIONS TO VISIBILITY.


CITY           SKY/WX    TMP DP  RH WIND       PRES   REMARKS
WILLISTON      CLEAR     -3  -8  79 CALM      30.21R
MINOT          CLOUDY    -2  -6  83 SW6       30.18R WCI -14
MINOT AFB      FLURRIES  -2  -6  80 W8        30.17S WCI -16
BISMARCK       CLEAR      2  -1  88 NW6       30.23R WCI  -9
DICKINSON      CLEAR     -4  -8  83 W8        30.14R WCI -19
GARRISON         N/A     -7 -10  87 CALM      30.18R
HETTINGER ARPT PTCLDY    -2  -7  79 CALM      30.17R
JAMESTOWN      CLOUDY     8   5  87 W3        30.21R
CARRINGTON     FAIR       0  -2  92 W7        30.22S WCI -13
HAZEN          CLOUDY    -8  -9  92 CALM      30.23R
LINTON           N/A     -2  -8  78 CALM      30.24R
MANDAN         FAIR       3   3 100 NW5       30.19F WCI  -6
OAKES          MOCLDY     3   0  85 S12       30.26R WCI -13
RUGBY          FAIR      -4  -6  92 SW8       30.19R WCI -19
STANLEY        FLURRIES  -6  -9  84 NW9       30.15S WCI -22
TIOGA          FAIR      -6  -9  84 W6        30.17R WCI -18
WATFORD CITY   CLOUDY    -6  -9  84 SW6       30.20R WCI -18
$$

CITY           SKY/WX    TMP DP  RH WIND       PRES   REMARKS
GRAND FORKS    FLURRIES  13   8  81 E3        30.25R
GRAND FORKS AF FLURRIES  13   9  85 CALM      30.24R
DEVILS LAKE    MOCLDY     0  -2  91 S3        30.21R FOG
FARGO          PTCLDY     6   5  95 S6        30.26R FOG     WCI  -4
CANDO          CLOUDY    -4  -4 100 SW6       30.21R FOG     WCI -16
CAVALIER       LGT SNOW  10   7  85 CALM      30.24R
GRAFTON        MOCLDY     9   7  92 CALM      30.27S
GWINNER          N/A      3   0  85 SW12      30.26R WCI -13
LANGDON        CLOUDY     9   9 100 CALM      30.18R
ROLLA          FAIR      -9 -13  84 SW6       30.16R WCI -23
WALHALLA       LGT SNOW  10  10 100 CALM      30.24R
$$

CITY           SKY/WX    TMP DP  RH WIND       PRES   REMARKS
ABERDEEN       CLOUDY     5   1  83 SW7       30.28R WCI  -7
MOBRIDGE       MOCLDY     4  -2  76 CALM      30.21R
BUFFALO          N/A      6   0  76 NW5       30.12R WCI  -3
RAPID CITY     CLOUDY    11   6  81 N3        30.14R
GLASGOW        CLEAR     -2  -8  76 SE5       30.16R WCI -12
SIDNEY         CLEAR     -2  -7  79 W15       30.22R WCI -22
WOLF POINT     CLEAR    -10 -14  82 CALM      30.23R
GLENDIVE       CLEAR     -8 -12  83 MISG      30.20R
MILES CITY     PTCLDY     1  -3  83 VRB3      30.19R
BAKER          CLEAR     -3  -4  95 VRB3      30.15S
$$

CITY           SKY/WX    TMP DP  RH WIND       PRES   REMARKS
BILLINGS       CLEAR      4   0  83 N7        30.07S WCI  -8
GREAT FALLS    MOCLDY    -2  -4  91 S5        29.99F WCI -12
REGINA         PTCLDY    -8 -11  84 SW2       30.15F
ESTEVAN        CLEAR     -6  -9  84 W9        30.17R WCI -22
$$




 

View Past Reports for Bismarck, ND.

Products Courtesy of NOAA-NWS
NWS Information Parsing Script by Ken True at Saratoga Weather - Script by SE Lincoln Weather.